Retour au catalogue

IUE

ActifScienceMEO
NORAD 10637·PAYLOAD·🇺🇸 United States

Lancé Jan 26, 1978 depuis Cape Canaveral Space Force Station

Loading…

Prochains Passages (prochaines 24 heures)

TLE

FraisSource: Space-Track

Époque: Sep 14, 2026, 02:12 UTC

1 10637U 78012A   26257.09186350 -.00000232  00000-0  00000-0 0  9997
2 10637  36.5650 287.0955 1440737 269.5596 284.2726  1.00057639129967

Suivez IUE en temps réel avec AllMySat

Download on the App Store